Regional Weather Roundup
Issued by NWS Little Rock, AR

Home | Current Version | Previous Version | Graphics & Text | Print | Product List | Glossary On
Versions: 1 2 3 4 5 6 7 8 9 10 11 12 13 14 15 16 17 18 19 20 21 22 23 24 25 26 27 28 29 30 31 32 33 34 35 36 37 38 39 40 41 42 43 44 45 46 47 48 49 50
000
ASUS44 KLZK 280305
RWRLZK

WEATHER ROUNDUP FOR ARKANSAS
NATIONAL WEATHER SERVICE LITTLE ROCK AR
1000 PM CDT MON JUL 27 2015

NOTE: "FAIR" INDICATES FEW OR NO CLOUDS BELOW 12,000 FEET WITH NO
SIGNIFICANT WEATHER AND/OR OBSTRUCTIONS TO VISIBILITY.

ARZ001-003-010-029-280400-
NORTHWEST ARKANSAS

CITY           SKY/WX    TMP DP  RH WIND       PRES   REMARKS
FAYETTEVILLE   CLEAR     79  78  97 CALM      29.96R
FORT SMITH     PTCLDY    88  71  57 S3        29.90R HX  94
HARRISON       CLEAR     80  77  90 SE3       29.99R HX  87
BENTONVILLE    PTCLDY    84  72  65 SE6       29.98R HX  89
ROGERS         PTCLDY    83  75  77 SE5       29.98R HX  90
SILOAM SPGS    CLEAR     82  72  69 E5        29.94R HX  87
HIGHFILL       PTCLDY    85  77  77 CALM      29.96R HX  95
$$

ARZ004-005-016-280400-
NORTH CENTRAL ARKANSAS

CITY           SKY/WX    TMP DP  RH WIND       PRES   REMARKS
BATESVILLE     PTCLDY    82  73  74 CALM      29.95R HX  88
FLIPPIN        CLEAR     79  72  78 CALM      29.95R
MTN HOME       CLEAR     79  73  82 CALM      29.96R
$$

ARZ040-041-280400-
WEST CENTRAL ARKANSAS

CITY           SKY/WX    TMP DP  RH WIND       PRES   REMARKS
MENA           CLEAR     82  72  69 CALM      29.96R HX  87
MOUNT IDA      CLEAR     81  73  76 CALM      29.93R HX  86
$$

ARZ009-017-025-026-028-280400-
NORTHEAST ARKANSAS

CITY           SKY/WX    TMP DP  RH WIND       PRES   REMARKS
JONESBORO        N/A     81  77  88 CALM      29.94R HX  88
NEWPORT        PTCLDY    83  80  90 CALM      29.95R HX  95
WALNUT RIDGE   PTCLDY    82  75  78 SE3       29.94R HX  89
BLYTHEVILLE    PTCLDY    84  80  88 CALM      29.95R HX  97
$$

ARZ022-023-033-042-044-280400-
CENTRAL ARKANSAS

CITY           SKY/WX    TMP DP  RH WIND       PRES   REMARKS
LITTLE ROCK    PTCLDY    85  76  74 SE5       29.93R HX  94
N LITTLE ROCK  PTCLDY    87  76  70 SE2       29.93R HX  96
JACKSONVILLE   CLEAR     85  76  72 SE3       29.93R HX  94
SEARCY         PTCLDY    80  77  90 CALM      29.95R HX  87
HOT SPRINGS    CLEAR     86  72  62 CALM      29.94R HX  92
RUSSELLVILLE   CLEAR     84  75  74 E3        29.92R HX  92
CLINTON        FAIR      81  79  94 CALM      29.97R HX  89
$$

ARZ036-280400-
EAST ARKANSAS

CITY           SKY/WX    TMP DP  RH WIND       PRES   REMARKS
WEST MEMPHIS   CLEAR     81  78  91 CALM      29.94R HX  89
$$

ARZ050-053-066-070-073-280400-
SOUTHWEST ARKANSAS

CITY           SKY/WX    TMP DP  RH WIND       PRES   REMARKS
ARKADELPHIA    FAIR      83  80  90 CALM      29.93R HX  95
CAMDEN         CLEAR     82  77  83 CALM      29.92R HX  91
TEXARKANA      CLEAR     85  72  65 SE5       29.93R HX  91
EL DORADO      CLEAR     82  77  84 CALM      29.94R HX  90
DE QUEEN       CLEAR     78  75  90 NE3       29.90R
$$

ARZ056-057-069-280400-
SOUTHEAST ARKANSAS

CITY           SKY/WX    TMP DP  RH WIND       PRES   REMARKS
PINE BLUFF     CLEAR     83  78  85 CALM      29.94R HX  93
STUTTGART      CLEAR     88  75  66 SE5       29.94R HX  97
MONTICELLO     CLEAR     86  78  77 CALM      29.94R HX  98

$$





USA.gov is the U.S. government's official web portal to all federal, state and local government web resources and services.